RH
65 66 65 65 66 70 74 77 74 70 69 69 67 62 62 69 78 82 82 81 78 75 75 76 82 90 97 101 102 102 99 92 80 70 65 66 73 81 90 96 99 103 105 104 101 100 100 100 100 99 100 101 101 103 101 97 99 101 100 100 100 102 101 99 97 95 98 103 103 103 105 104 105 105
63 63 63 64 66 67 69 73 76 76 76 79 79 72 62 60 66 74 80 84 85 82 79 77 77 81 87 95 102 104 105 104 97 85 72 63 60 63 69 78 87 94 102 106 105 102 100 100 100 101 103 102 100 101 100 96 95 96 99 100 100 101 101 100 100 98 96 98 97 96 98 98 100 99
62 61 63 65 66 64 62 65 67 68 68 70 75 76 69 61 59 63 68 76 82 85 84 82 81 82 82 85 91 98 104 106 103 99 89 76 65 59 58 61 67 75 87 98 104 103 103 104 104 103 103 104 103 102 101 99 96 94 95 98 98 100 101 100 101 101 99 99 99 97 94 94 95 92
62 60 62 65 66 60 55 57 61 64 66 65 67 70 69 65 62 62 62 65 71 78 84 85 84 85 85 85 86 90 96 101 103 104 102 96 86 73 64 58 56 60 71 84 94 97 98 102 106 105 103 104 106 105 102 101 100 99 97 97 97 98 100 100 100 101 100 100 100 100 99 98 98 97
61 58 55 55 56 54 51 51 54 58 61 62 62 61 61 61 62 65 67 67 66 71 79 85 88 88 86 86 86 88 91 95 99 102 103 103 101 94 86 75 65 61 61 66 73 78 84 92 100 104 103 103 105 107 104 101 101 102 100 100 99 98 99 100 100 100 101 101 101 100 100 101 100 100
58 56 53 50 50 52 53 53 53 55 58 59 59 60 59 57 57 63 74 79 75 70 73 79 85 89 90 89 89 88 88 91 95 100 102 102 101 102 101 97 91 84 76 70 65 62 62 69 83 96 101 100 100 104 105 103 105 105 101 100 101 99 99 100 99 100 100 100 101 101 100 100 100 100
55 53 53 55 59 63 65 66 66 67 68 68 69 68 63 58 56 61 76 88 90 84 78 79 83 85 90 94 96 95 91 90 91 94 99 102 102 101 100 101 102 100 96 91 85 78 69 60 61 73 86 94 97 98 101 103 107 108 102 99 101 101 100 100 100 100 100 100 100 100 100 100 100 101
68 67 68 70 71 72 75 77 77 75 74 73 72 69 64 60 58 60 68 81 93 95 89 84 83 81 82 86 91 96 97 95 93 92 93 96 101 102 101 98 96 94 91 88 87 88 87 80 71 64 65 75 85 92 97 98 100 105 106 102 99 100 101 101 101 100 100 100 100 100 100 100 100 100
87 87 86 82 78 76 76 76 73 70 68 66 65 66 64 62 61 61 65 74 89 98 96 91 88 86 83 82 83 86 89 91 93 94 93 92 94 98 100 101 98 94 88 84 79 77 78 82 85 81 72 67 68 75 83 86 87 95 103 103 100 100 100 100 101 101 100 100 100 100 100 101 101 100
87 86 84 80 77 75 72 69 66 63 59 57 59 60 57 58 60 62 64 72 87 99 103 100 99 98 96 94 92 89 85 82 83 87 89 91 91 92 95 98 99 97 94 90 85 79 74 71 73 78 81 79 72 66 64 64 67 76 87 93 96 99 101 101 100 100 100 100 100 100 100 100 100 100
79 78 77 74 70 68 66 63 60 56 54 53 54 54 53 56 63 66 67 74 86 99 105 104 102 102 102 101 99 99 95 90 84 80 80 82 84 86 88 91 93 94 94 93 90 87 84 79 74 72 75 82 85 82 72 60 53 55 62 71 79 87 94 99 101 102 101 100 100 100 100 101 101 101
77 75 73 69 65 64 64 61 56 53 53 54 53 53 55 63 76 86 88 89 93 100 106 106 103 102 101 101 102 103 102 98 92 85 79 76 76 77 79 83 85 85 86 88 89 90 89 86 84 82 81 82 85 88 88 81 68 57 50 51 57 64 74 84 92 98 102 103 102 102 101 100 100 100
72 70 68 65 61 60 59 58 55 52 52 54 55 56 57 63 78 93 100 102 103 103 99 93 86 82 78 77 81 86 89 90 90 87 81 75 72 72 71 73 77 77 77 80 82 84 86 85 84 85 86 87 86 83 86 88 85 76 63 52 48 48 52 60 68 77 85 92 98 101 103 104 104 102
69 68 68 66 60 56 54 53 51 50 50 53 55 58 60 61 67 77 85 90 91 86 78 72 69 65 60 53 52 54 59 65 70 72 70 66 63 63 63 64 69 70 70 72 73 74 78 80 80 81 83 86 85 82 80 82 85 84 79 70 60 53 49 48 50 54 59 65 73 79 86 91 93 92
84 81 78 73 64 60 58 56 53 50 49 50 50 53 56 58 60 62 64 66 67 64 61 62 63 63 60 54 47 42 41 43 46 48 50 49 47 47 48 50 55 60 61 62 65 68 69 71 72 75 78 82 83 79 76 77 78 82 85 83 79 72 65 58 53 49 48 49 50 53 56 60 62 63
99 94 87 78 70 67 67 66 64 62 57 53 51 50 50 51 52 53 53 55 56 57 57 57 58 59 59 58 53 47 41 37 36 36 35 36 35 36 37 38 40 44 47 49 53 56 59 61 64 66 68 73 79 79 75 73 71 74 79 84 85 83 81 77 71 64 57 53 50 48 47 47 47 47
102 101 97 93 88 83 78 73 69 66 64 61 59 56 54 52 50 48 49 50 51 53 55 55 56 56 56 56 56 53 46 38 35 33 31 31 31 31 32 32 32 33 34 36 39 42 45 48 52 56 57 60 66 72 75 74 71 71 74 79 81 82 83 83 82 79 76 72 68 63 57 53 51 49
99 100 101 102 101 97 93 88 80 73 68 64 63 63 61 59 57 54 52 51 51 51 53 55 58 59 58 58 58 58 53 45 38 34 31 30 29 29 29 29 30 30 29 30 30 32 34 36 39 43 46 48 52 58 65 70 72 72 73 76 78 79 81 82 82 83 83 83 82 80 76 71 65 61
96 99 103 103 99 97 97 98 95 90 83 74 69 67 66 65 64 63 61 58 54 51 50 51 55 59 60 60 61 62 61 54 45 38 33 31 29 28 28 28 29 30 31 31 31 30 30 30 31 33 36 38 41 45 51 58 67 71 72 73 75 77 78 78 79 79 79 79 81 82 83 82 78 74
98 98 100 101 97 93 92 92 93 94 93 88 82 76 74 73 72 73 73 71 66 62 59 56 54 54 54 55 59 62 63 61 54 45 38 33 29 27 26 26 26 28 30 32 33 33 32 30 29 29 30 31 33 36 38 43 51 60 66 70 74 76 76 75 74 74 73 72 73 74 75 77 77 77
97 92 91 93 94 95 94 94 92 90 89 88 86 82 80 79 80 80 79 77 75 74 73 69 63 57 53 53 56 60 63 63 59 51 43 36 30 27 26 25 25 26 28 30 33 36 36 34 31 30 30 30 30 30 32 33 36 42 50 57 64 70 73 74 72 70 68 67 68 68 68 68 69 70
99 95 90 88 86 86 87 87 87 87 86 85 84 82 82 83 84 82 79 77 76 75 73 70 65 60 58 59 61 63 64 61 55 48 42 36 31 28 26 26 27 28 29 30 33 35 36 35 35 34 34 34 33 31 30 29 29 31 34 39 46 53 59 65 68 67 65 64 65 66 67 67 66 66
98 96 93 88 83 79 77 77 78 80 82 81 79 80 82 83 81 77 73 71 70 69 67 66 65 64 64 63 60 57 54 49 44 39 35 32 30 29 29 29 30 31 33 34 34 36 36 36 36 35 35 36 37 37 34 32 30 28 28 29 31 35 41 47 53 57 58 60 61 62 64 65 66 66
86 85 84 81 78 75 73 73 73 74 74 75 75 76 76 75 73 70 69 68 68 67 65 63 60 57 52 47 43 40 38 36 34 33 31 31 31 32 33 34 35 36 38 38 38 38 39 38 37 36 35 35 36 37 37 36 34 31 29 27 25 26 28 31 35 39 44 49 52 55 57 59 61 63
81 80 79 77 74 73 72 72 72 72 73 73 73 73 71 69 68 68 68 67 64 59 53 48 43 40 37 35 34 34 34 35 35 35 36 36 37 37 38 39 39 41 41 41 41 40 39 39 39 37 36 34 34 34 34 35 35 33 31 28 26 24 23 23 24 26 29 33 37 41 45 48 51 54
82 82 81 79 78 78 78 78 77 75 74 73 72 70 67 64 60 58 57 54 50 45 41 39 38 37 37 38 38 39 39 39 39 40 40 41 41 41 42 42 42 43 44 44 43 42 40 39 38 36 34 32 30 30 30 31 32 32 30 28 25 24 23 22 21 20 20 22 24 27 31 35 39 42
93 93 91 89 88 86 85 83 79 75 71 68 64 60 55 51 47 45 44 44 43 42 43 43 44 44 43 43 43 43 43 43 44 44 45 45 46 46 46 46 46 47 47 47 45 41 37 34 32 30 28 27 25 25 24 24 25 26 27 27 25 24 22 21 21 20 19 19 19 19 21 23 26 29
83 82 82 80 77 73 71 69 66 63 61 57 54 51 48 47 47 47 48 48 48 48 49 49 48 47 46 46 46 46 46 46 47 47 47 47 47 47 47 47 47 46 45 42 38 34 30 27 26 24 23 22 22 21 21 20 20 20 21 22 23 23 22 21 21 21 21 20 19 19 19 19 20 21
67 65 64 63 62 60 59 58 57 57 56 55 55 55 55 56 57 56 56 55 54 53 52 51 50 49 49 49 48 48 47 46 45 45 45 45 45 45 45 44 42 40 36 33 30 27 25 24 23 22 21 21 20 20 20 19 19 18 19 19 19 20 20 21 21 21 21 21 21 20 20 20 20 19
71 70 69 70 71 72 72 71 69 67 65 63 62 62 63 63 62 61 60 58 56 55 54 53 52 51 50 49 48 47 45 44 44 43 43 43 43 41 40 38 35 31 28 26 24 23 22 22 22 21 21 21 20 20 19 19 18 18 17 17 18 18 18 18 18 19 20 20 20 21 20 20 20 20
70 71 72 74 76 78 79 79 79 77 74 71 69 67 66 64 62 60 58 57 55 54 53 51 50 49 47 46 45 44 43 42 42 41 40 39 37 35 33 31 28 26 24 23 22 21 20 20 21 21 21 20 20 19 18 18 17 17 16 16 16 17 17 16 16 17 17 18 19 19 19 18 18 18
64 64 66 68 69 71 73 72 72 72 71 71 70 68 65 63 60 58 56 54 52 51 49 48 47 46 45 44 42 42 41 40 39 38 36 34 32 31 28 27 25 24 22 21 20 19 19 20 19 20 20 20 19 19 18 18 17 17 17 16 16 16 16 16 15 16 16 17 18 18 18 17 16 16
65 66 66 66 66 66 65 65 65 65 66 66 66 65 63 61 59 58 56 53 52 50 49 48 47 45 43 42 40 40 39 38 36 34 32 30 29 27 26 25 23 22 21 20 19 18 18 19 19 18 18 18 19 19 18 18 18 17 17 17 16 16 16 15 15 15 15 16 16 16 16 16 16 17
67 69 68 68 66 65 65 64 64 64 64 65 65 64 63 62 60 58 57 55 53 51 49 47 45 44 42 40 39 37 36 34 32 30 29 27 26 24 24 23 22 21 20 20 19 18 18 17 16 16 16 16 16 17 17 17 17 16 17 17 16 16 15 15 15 15 14 15 15 15 14 14 15 16
59 59 59 59 60 61 61 60 59 60 60 60 60 60 60 59 57 55 54 52 50 48 45 44 42 40 39 37 35 34 33 31 29 28 26 25 24 23 22 22 21 20 20 19 18 17 17 17 16 16 16 16 16 17 17 17 16 16 16 17 16 15 14 14 14 14 14 14 14 13 13 13 13 14
47 48 48 48 49 50 51 50 50 51 51 51 51 51 51 50 49 48 47 46 44 42 41 40 38 35 34 33 33 32 30 28 27 25 24 23 23 22 22 21 21 19 19 18 18 18 19 19 19 19 18 18 18 18 17 17 16 17 18 18 16 14 13 13 14 15 15 14 13 12 12 12 12 12
41 42 42 41 41 41 42 42 43 44 44 44 44 43 43 43 43 42 41 40 39 37 36 34 32 31 31 32 32 30 28 26 25 24 23 23 23 23 22 21 20 20 19 20 21 21 21 20 20 19 19 18 18 18 17 17 17 17 19 19 17 15 14 15 16 16 15 14 13 12 12 12 12 12
37 38 38 37 37 37 38 39 40 40 40 40 39 39 39 38 37 36 35 34 33 32 31 30 30 30 31 32 31 28 26 25 24 24 24 24 23 23 22 21 21 21 22 22 22 22 21 19 18 18 18 18 17 17 17 17 18 18 19 18 17 16 16 16 17 17 16 15 14 14 14 14 14 14
36 36 36 35 35 36 37 38 38 38 37 36 35 35 34 33 31 31 30 30 30 30 29 29 30 32 32 31 28 26 25 25 25 25 25 24 24 24 23 23 23 24 23 22 22 21 19 17 17 16 16 16 16 16 16 16 16 17 18 17 17 16 16 16 15 15 15 15 15 15 15 15 15 15
34 33 33 34 35 36 37 37 36 35 34 33 33 32 31 29 29 29 29 30 30 30 30 30 31 32 32 29 27 27 27 26 26 26 25 25 25 26 26 25 25 24 22 21 19 18 17 16 16 15 15 15 14 14 14 14 14 15 15 15 15 15 14 14 13 12 13 13 13 14 14 14 14 14
28 29 30 32 33 34 34 33 33 33 33 32 31 30 29 29 29 30 30 31 30 30 30 31 32 32 31 29 29 29 28 28 28 27 27 27 28 28 27 26 24 21 20 19 17 17 16 15 15 14 14 13 13 12 11 11 11 11 11 12 12 11 11 10 9 9 9 9 10 10 11 10 11 11
25 26 28 29 30 30 30 31 31 31 31 31 30 29 29 29 30 30 31 30 30 30 30 31 32 32 31 31 31 30 29 29 30 30 30 30 29 28 26 24 21 19 18 17 17 16 16 15 15 14 14 13 12 12 11 10 9 9 9 9 9 9 9 8 8 8 9 9 10 10 10 10 10 10
24 25 26 27 27 27 28 29 29 30 29 29 29 29 29 29 30 30 31 30 29 30 31 33 34 33 32 32 32 31 31 32 33 33 32 30 28 26 24 22 20 19 18 18 18 17 17 17 16 15 15 14 14 13 13 13 13 13 12 12 11 11 11 10 10 11 12 12 13 13 12 12 12 12
26 26 26 26 26 27 28 28 29 29 29 29 29 29 29 30 30 30 30 30 30 32 34 35 35 34 33 32 33 34 35 36 35 34 32 29 27 26 24 23 22 22 22 23 23 21 20 20 19 18 18 17 16 16 16 17 16 16 15 14 13 13 13 13 13 14 14 15 15 15 15 15 15 15
27 27 27 28 28 28 29 29 29 29 29 29 30 30 30 30 30 30 30 31 32 34 36 36 36 35 34 35 37 38 39 37 35 33 31 29 29 28 28 28 29 29 29 30 30 29 27 26 24 22 21 20 19 20 19 19 18 17 15 15 15 14 14 15 15 15 16 16 16 15 15 15 15 15
Wind_Speed
37 37 37 38 38 38 37 36 36 35 35 34 33 33 33 34 34 35 36 36 37 37 38 39 42 46 51 54 55 55 55 54 54 53 53 53 53 53 53 53 52 51 49 47 46 45 45 45 46 46 47 49 52 54 55 54 53 51 51 51 50 50 50 52 54 55 54 54 55 54 53 52 50 49
39 38 38 38 38 38 37 37 38 38 38 38 37 36 36 35 35 36 37 38 38 39 39 39 39 41 43 46 50 53 55 56 56 54 53 53 53 54 54 54 54 53 53 51 50 49 49 48 48 49 49 49 50 53 55 57 57 56 55 54 54 54 54 54 53 53 53 54 55 55 55 54 53 53
41 40 39 39 39 39 39 38 38 38 39 39 39 38 38 38 38 38 38 39 40 41 41 41 40 40 41 42 43 46 50 53 55 54 53 53 53 53 54 54 54 54 54 54 53 52 53 52 51 51 52 52 52 52 53 55 57 59 60 59 57 56 57 58 57 55 54 53 53 54 54 55 55 55
44 42 41 41 41 41 41 41 40 40 39 39 39 39 39 40 40 40 40 40 41 42 43 43 43 42 42 42 42 43 45 48 52 54 54 53 53 53 53 53 54 54 54 54 54 54 54 55 54 54 54 54 54 54 55 55 56 58 60 62 62 61 59 59 59 60 60 58 56 55 54 54 54 54
46 46 45 44 44 44 44 43 43 43 43 43 42 42 43 43 44 44 43 43 42 43 43 44 45 45 45 44 44 44 44 45 48 52 55 55 54 53 53 53 54 54 54 54 55 55 55 55 56 56 56 55 56 56 57 57 57 58 59 61 63 64 64 62 61 61 62 62 62 61 60 58 58 57
49 48 47 47 46 46 46 46 46 46 47 47 47 47 47 47 47 47 46 46 44 44 44 44 45 46 47 47 46 46 46 46 46 48 52 55 57 57 56 56 55 55 55 55 55 56 56 57 57 58 58 58 57 57 58 59 59 59 60 62 63 64 65 65 65 64 63 63 63 64 64 64 64 64
51 50 49 49 49 49 49 49 49 49 50 50 50 50 49 48 48 47 47 47 47 46 46 46 46 46 47 48 49 49 49 49 48 48 49 51 55 58 60 60 60 60 60 59 58 58 57 57 58 58 59 60 59 59 59 60 61 61 62 63 64 65 66 66 67 67 67 66 65 65 65 65 66 66
54 53 52 52 52 52 52 52 52 52 52 51 51 50 49 48 47 47 47 48 49 49 49 49 49 48 48 48 49 50 50 51 51 51 51 51 52 53 56 59 61 63 64 64 63 62 61 60 59 59 59 59 61 61 61 61 62 63 64 65 65 66 67 68 69 69 69 69 69 68 68 67 67 67
57 56 55 55 54 53 52 52 51 51 50 48 47 47 47 47 47 48 48 49 50 51 52 52 52 52 52 52 51 51 52 53 53 54 54 54 54 53 54 55 57 59 62 64 65 65 65 64 63 62 61 60 60 61 62 63 63 63 64 66 67 67 67 68 69 69 70 70 70 71 71 71 71 70
56 55 54 52 51 51 50 49 48 47 46 45 45 44 44 45 46 47 48 49 51 52 53 53 53 54 54 54 54 54 54 54 55 55 56 56 57 57 56 56 57 57 58 60 62 64 65 66 67 66 66 65 64 63 63 64 64 65 65 66 67 68 68 68 69 69 69 70 70 71 71 72 72 72
53 52 51 49 48 48 47 46 45 44 43 42 42 43 42 41 41 43 46 47 49 51 52 53 55 56 56 57 58 58 59 59 58 58 58 58 59 59 59 59 59 59 59 59 60 62 64 66 68 69 69 68 68 67 66 65 65 66 67 67 67 68 69 69 70 70 70 70 70 71 71 72 72 72
49 49 48 47 46 45 45 45 44 43 42 41 41 41 40 38 37 38 41 43 45 47 49 51 53 55 57 59 60 60 61 62 62 62 61 61 61 61 61 61 61 62 62 62 62 62 63 64 66 68 70 71 71 70 69 69 69 68 68 69 69 70 70 71 71 71 71 72 72 72 72 72 73 73
48 48 48 48 47 46 46 46 45 44 42 41 41 40 39 38 38 39 40 42 44 46 48 50 52 53 55 57 59 60 60 61 62 62 62 62 63 63 63 63 63 64 64 64 64 64 64 65 66 67 69 71 72 73 72 72 72 72 72 71 71 72 72 73 73 73 74 74 74 73 74 74 74 74
49 49 49 48 48 47 47 47 46 45 44 43 43 42 41 41 41 42 44 46 48 49 51 52 53 53 54 56 58 59 60 61 62 62 62 62 64 65 65 65 64 65 66 65 66 67 67 67 68 68 68 70 72 73 74 75 75 75 75 75 75 74 74 74 75 76 76 76 76 76 76 76 76 75
48 47 47 47 48 49 49 50 49 48 47 46 45 45 45 45 46 46 48 49 51 52 53 53 54 54 54 55 57 59 60 61 62 62 61 62 63 64 66 66 66 67 68 68 67 68 69 69 70 70 71 71 73 74 74 75 76 77 77 78 78 78 78 77 78 78 78 78 78 78 78 78 78 78
53 54 54 55 56 55 54 53 53 52 52 50 49 48 47 47 48 49 50 51 52 53 54 54 55 56 56 56 57 59 60 61 62 62 61 61 62 62 64 66 66 67 68 69 70 71 71 71 71 73 73 73 74 76 76 76 77 77 78 79 80 81 81 81 81 81 81 81 80 80 80 81 81 81
59 60 62 63 63 61 59 57 55 55 55 55 54 54 53 52 51 51 52 53 54 54 54 54 55 56 57 57 58 60 61 62 62 62 61 60 61 61 62 63 64 65 66 68 69 71 72 73 73 75 76 76 76 78 78 79 79 79 79 80 81 82 83 83 84 84 84 84 84 84 84 83 83 83
65 65 66 66 65 65 64 63 61 59 58 58 58 58 58 57 56 55 55 56 56 55 55 55 55 56 57 58 58 60 61 62 62 62 61 60 61 61 61 61 62 63 64 66 67 68 70 72 73 75 77 78 78 80 81 81 81 81 81 82 82 83 84 84 85 86 86 86 87 87 87 87 87 87
69 69 69 69 68 67 66 65 65 64 63 63 63 62 62 61 61 61 61 60 60 59 57 56 56 57 57 58 58 59 60 61 61 61 61 60 61 62 62 62 62 62 63 64 66 67 68 71 71 73 76 77 79 81 82 83 83 84 84 84 85 85 86 86 86 87 87 88 88 89 89 89 89 89
72 71 71 70 70 68 67 67 67 67 67 68 67 67 67 66 65 65 65 65 65 64 63 61 59 58 57 57 58 59 60 60 61 61 61 61 61 62 63 63 63 63 63 63 65 66 68 70 70 72 74 76 77 79 81 83 84 85 86 87 87 88 88 89 89 90 89 89 89 90 90 90 90 90
75 74 73 72 71 71 70 70 70 71 71 71 71 70 70 69 68 68 68 68 67 67 67 66 64 61 59 58 57 58 59 60 61 62 62 62 62 62 62 63 64 65 65 65 65 67 69 70 70 71 73 75 76 78 80 82 83 84 86 88 89 90 91 92 92 93 92 91 91 91 91 91 91 91
77 77 76 76 75 74 73 73 73 74 73 73 73 72 72 71 70 70 70 69 68 67 66 65 64 62 61 59 59 59 60 61 62 63 63 63 63 63 63 64 64 66 67 66 66 68 70 71 71 72 73 74 76 78 80 82 83 84 86 87 89 91 92 93 94 95 94 93 93 93 93 93 93 92
80 80 79 79 78 77 76 75 75 75 75 74 74 73 72 72 71 70 69 67 66 65 63 62 61 61 60 60 60 60 61 62 62 63 63 63 63 63 64 65 65 66 68 68 68 69 71 72 72 73 74 75 77 79 81 83 84 85 87 88 89 91 93 94 96 96 95 94 94 94 95 95 95 95
80 80 80 80 79 78 77 76 75 75 75 74 74 73 72 71 69 68 66 64 63 61 60 60 60 60 60 60 60 60 60 61 62 63 64 64 64 64 65 66 67 67 69 70 70 70 72 73 74 75 76 77 78 80 82 84 85 87 89 90 91 91 92 94 95 96 96 96 96 96 96 96 96 96
78 77 78 77 77 76 74 73 73 72 72 71 71 70 69 67 65 64 62 62 61 60 60 60 60 60 60 60 60 60 61 61 62 63 64 65 65 66 67 67 68 68 70 71 72 72 73 74 75 77 78 79 79 80 82 84 87 89 90 92 92 93 93 94 95 95 95 95 96 97 97 97 97 97
74 74 74 73 72 71 70 69 69 68 67 67 66 66 65 64 63 62 61 61 61 61 61 62 62 62 62 62 62 63 63 63 64 65 66 66 67 68 69 69 70 70 72 73 74 74 75 75 77 78 79 80 80 81 82 84 86 89 91 92 92 93 93 94 94 94 94 94 94 95 96 96 97 98
71 71 71 70 69 68 68 67 67 66 65 65 65 65 64 63 63 62 62 63 63 63 64 64 65 65 65 65 66 66 66 67 67 68 69 70 71 71 72 72 73 73 75 76 77 77 76 76 76 77 77 78 79 80 81 82 84 86 88 90 91 91 91 91 92 92 93 93 93 93 94 94 95 96
70 70 70 69 69 68 67 67 67 66 66 66 66 66 66 65 65 66 66 66 67 67 67 68 68 69 69 69 69 70 70 70 71 71 72 72 73 73 73 73 74 74 75 76 76 76 75 74 74 74 74 74 75 76 78 79 80 81 83 85 87 89 89 88 88 88 89 90 91 91 91 92 92 93
71 70 70 70 70 69 69 69 69 69 69 69 69 68 68 68 69 69 70 70 70 70 71 71 71 72 72 72 72 72 73 73 72 72 72 72 72 72 72 73 73 74 74 74 73 73 72 71 70 69 69 69 70 71 72 73 74 76 78 79 81 83 85 85 85 85 85 86 86 87 87 88 89 91
73 72 72 72 72 72 72 72 72 72 72 72 72 72 72 72 72 73 73 73 73 73 73 74 74 74 74 74 74 74 73 73 72 71 71 71 71 71 71 71 71 71 71 69 68 67 66 64 64 64 65 65 66 67 68 69 70 71 73 74 75 77 79 80 81 82 82 82 83 83 84 84 85 86
75 74 74 74 74 75 75 75 75 75 75 75 75 75 75 75 75 75 75 76 75 75 75 76 75 75 75 74 74 73 72 71 70 70 69 69 69 69 69 68 68 67 66 64 62 61 60 59 59 60 61 62 63 63 64 65 65 67 68 69 69 71 73 75 75 76 78 79 80 80 81 80 80 80
76 76 76 76 77 77 77 77 77 77 77 76 76 77 77 78 78 78 77 77 77 77 77 76 76 75 74 73 71 70 70 70 69 68 67 67 67 66 65 64 62 61 61 60 58 56 55 55 55 55 56 57 58 59 59 60 61 62 63 64 65 66 68 69 70 71 72 74 75 77 77 77 76 76
77 78 79 79 79 79 79 78 78 77 77 77 78 78 79 79 79 79 79 79 78 78 77 76 75 74 73 71 70 70 69 69 68 67 66 65 63 61 60 59 58 58 57 56 54 52 51 50 50 51 52 52 53 54 55 56 57 57 57 59 61 62 63 65 65 66 67 68 70 72 73 73 73 72
78 79 80 79 79 79 79 79 78 78 78 78 78 79 80 80 80 80 79 79 78 78 77 76 74 73 72 71 70 68 67 67 66 64 62 60 58 57 56 56 55 54 53 52 50 48 47 47 47 47 48 48 48 49 50 52 53 53 53 55 57 58 60 60 60 61 62 63 64 66 67 67 67 67
79 79 79 78 77 77 78 78 78 78 78 78 78 79 79 79 79 79 79 78 78 77 76 74 73 72 70 68 67 65 65 64 62 59 57 56 55 54 53 53 52 50 49 48 46 44 44 43 43 43 44 43 44 45 45 47 48 48 48 50 53 55 56 56 55 55 57 58 60 61 61 61 61 62
78 79 78 77 76 77 77 77 77 77 77 78 78 78 78 78 78 78 77 77 76 74 73 72 70 68 66 64 62 62 61 59 56 55 53 53 52 51 50 49 48 46 45 43 42 41 41 41 40 40 41 41 41 42 42 43 43 43 44 47 51 52 52 50 49 50 52 54 55 55 55 55 55 56
77 78 77 76 76 75 75 76 76 76 76 76 76 76 76 76 75 75 74 73 72 70 68 67 64 62 59 58 58 58 56 54 52 51 50 49 49 48 47 46 45 43 42 40 40 40 40 39 38 38 39 39 39 39 39 39 39 39 41 46 49 49 46 44 44 46 49 50 50 49 49 49 49 50
75 76 76 75 74 74 73 74 74 74 75 74 74 73 73 72 71 70 69 68 66 64 62 60 57 55 54 54 55 54 51 49 48 48 47 46 45 45 44 43 42 41 39 39 39 39 39 37 36 36 37 37 37 37 36 36 36 37 40 43 45 45 42 40 41 43 45 46 45 44 44 44 44 45
73 74 74 73 72 71 71 71 72 72 72 72 71 70 69 68 67 65 63 62 60 58 56 54 51 50 51 52 51 49 47 46 45 44 43 43 42 42 41 41 40 39 38 38 38 38 37 36 34 34 35 35 35 34 34 33 33 35 38 41 42 41 39 38 39 40 41 41 41 41 40 41 41 41
69 69 69 68 67 67 68 69 69 69 69 68 68 67 65 64 62 60 58 56 55 53 50 48 47 48 49 49 47 45 44 43 42 41 40 40 40 40 39 39 38 38 37 37 37 36 35 34 33 33 33 33 32 32 32 31 31 33 35 37 38 37 37 37 37 36 36 36 37 37 37 37 37 37
63 62 62 62 62 63 64 65 65 65 65 64 64 62 61 59 57 55 53 52 50 48 46 45 45 45 46 44 43 42 41 40 39 38 38 38 38 37 37 37 37 36 36 35 34 34 33 32 31 31 31 31 31 30 29 29 29 30 32 33 34 34 34 34 33 32 31 31 31 32 32 33 33 33
57 56 56 57 58 59 59 60 60 60 60 59 59 58 56 54 52 50 49 47 46 44 43 42 42 42 42 40 39 39 38 37 36 37 37 36 36 35 35 35 35 34 34 33 32 31 30 29 29 29 29 29 28 28 27 27 27 27 28 29 29 30 30 30 29 27 26 26 26 27 27 28 28 28
52 52 52 53 54 54 55 55 55 55 55 54 53 52 51 49 48 46 45 44 42 40 39 39 39 39 38 37 36 36 35 35 35 35 35 34 34 33 33 33 32 32 31 30 29 28 27 26 26 26 26 26 25 25 24 24 24 24 25 25 25 26 26 25 23 22 22 22 23 23 23 24 24 24
49 49 50 50 51 51 51 51 51 51 50 50 49 48 47 45 44 42 41 39 38 37 37 36 36 36 35 34 33 33 33 33 33 32 32 32 31 31 30 30 29 29 28 27 27 25 24 23 23 23 23 22 22 21 20 20 20 21 21 22 22 22 22 21 20 19 19 20 21 21 21 21 21 21
47 47 48 48 48 47 48 48 48 47 47 46 45 44 43 42 40 39 37 36 35 35 34 34 34 34 33 32 31 31 32 31 30 30 29 29 28 28 28 27 26 26 25 24 23 23 22 21 21 20 20 19 18 18 17 17 17 18 18 18 18 19 19 18 17 17 18 19 20 20 20 19 20 20
Wind_Direction
278 277 277 277 275 271 267 263 260 259 261 263 265 266 266 264 262 262 261 259 257 255 251 248 246 245 244 244 244 245 246 247 247 246 245 245 246 246 247 247 246 246 246 246 244 241 240 241 242 242 241 239 238 239 239 238 237 237 238 238 239 243 247 250 251 252 252 252 252 252 253 255 256 258
278 277 276 276 276 275 272 268 265 263 262 263 264 265 265 264 262 261 261 260 259 258 256 253 250 248 246 246 246 246 246 246 248 249 249 247 246 246 247 247 247 247 247 247 245 242 241 242 243 244 243 241 240 241 241 241 241 241 240 239 239 241 244 247 249 251 252 253 254 253 253 255 256 258
277 276 276 274 274 276 275 273 271 269 267 266 265 265 264 264 262 261 260 259 259 258 257 256 254 251 249 248 247 247 246 245 245 247 250 250 250 248 247 247 248 248 249 248 247 245 244 243 243 244 244 243 242 241 241 242 242 243 243 242 241 241 242 244 246 247 248 249 251 253 254 255 257 258
275 275 274 273 273 274 275 275 274 273 272 271 270 269 267 266 264 263 261 260 259 258 257 256 255 253 252 250 249 248 247 246 245 245 247 250 251 252 250 249 248 249 249 249 248 247 247 246 245 244 243 243 243 242 241 241 242 242 244 245 244 243 242 242 243 245 246 246 246 247 249 251 253 255
274 274 274 274 273 273 272 272 273 273 273 273 273 272 271 270 267 266 264 262 261 259 258 256 255 254 253 252 251 249 249 248 246 245 246 247 249 250 251 251 250 250 250 249 249 248 247 248 247 246 244 243 243 243 243 242 241 241 242 244 245 245 245 244 243 244 245 246 246 246 245 246 248 249
273 273 273 274 274 274 272 271 270 270 270 271 271 272 272 270 269 267 265 263 262 261 259 258 257 256 255 254 253 252 250 249 248 247 247 246 246 247 249 250 251 251 251 251 251 250 248 248 248 248 247 245 244 243 243 243 242 241 241 242 244 245 246 246 246 245 245 245 246 247 247 246 247 247
271 272 272 273 274 274 273 271 270 270 270 271 271 271 271 269 267 265 263 262 261 260 259 258 257 256 255 255 254 253 252 251 250 249 249 248 247 247 247 248 249 250 251 252 252 252 251 249 248 247 248 248 247 245 244 243 243 242 241 241 242 244 245 246 246 247 247 247 246 247 247 248 248 249
272 272 273 273 274 273 272 271 270 270 271 271 271 270 270 268 266 264 262 260 259 258 257 257 256 255 255 254 253 253 253 252 252 251 251 250 249 249 249 249 249 249 250 251 252 252 252 252 250 249 247 247 247 248 247 245 244 243 242 241 242 243 245 246 247 247 247 248 248 248 248 249 250 250
273 273 273 273 273 272 271 270 269 270 270 270 270 269 267 265 263 262 261 259 258 257 258 258 257 257 256 256 255 254 253 252 252 252 252 251 251 251 250 250 250 250 250 250 251 251 252 252 252 252 250 248 247 247 247 247 246 245 243 242 242 242 244 245 246 247 248 248 248 248 249 250 250 251
273 273 273 272 272 271 269 269 268 269 269 269 268 267 265 262 260 258 257 257 257 257 257 258 258 258 258 258 258 257 256 254 253 252 251 251 251 251 251 252 252 251 251 251 251 251 251 251 252 253 253 253 251 248 247 247 247 247 247 246 244 244 244 244 245 246 247 248 248 248 248 249 250 251
273 273 272 271 270 269 268 268 267 268 268 268 266 265 264 262 260 257 256 256 256 256 257 257 258 257 258 258 259 259 258 258 257 255 253 252 251 251 250 251 252 252 252 252 252 251 251 251 252 252 253 254 254 253 251 249 248 247 247 248 248 247 246 245 245 245 246 246 247 248 248 249 249 250
273 273 272 271 269 268 268 269 269 268 267 266 265 264 264 263 260 257 256 256 256 256 256 258 259 259 259 259 259 260 260 259 259 257 256 254 253 252 251 250 250 251 252 252 253 252 252 252 251 252 253 253 254 254 253 253 252 250 249 248 248 249 249 248 248 247 246 246 246 247 248 248 249 249
272 271 270 269 268 267 267 268 268 268 267 266 264 264 263 262 259 258 256 255 255 255 256 258 259 261 261 261 261 260 260 260 259 258 257 256 255 254 253 252 251 251 251 251 252 252 253 253 253 252 252 253 253 253 253 254 254 253 252 251 250 249 249 249 250 249 249 248 247 247 248 248 249 249
271 270 269 268 268 268 268 268 268 268 267 266 264 263 262 261 260 258 256 254 254 255 256 257 259 260 261 261 261 260 259 259 259 258 258 258 257 256 255 254 253 253 252 251 251 252 252 252 253 253 253 253 253 253 253 253 253 254 254 254 253 252 251 250 250 250 250 250 250 250 250 249 250 250
273 270 269 269 271 273 274 274 274 272 270 268 265 264 262 260 259 259 258 258 257 258 258 259 259 259 260 260 260 259 258 257 257 257 257 258 258 258 257 256 255 254 255 254 253 253 252 252 252 252 252 253 253 253 253 252 252 253 253 254 254 254 253 252 252 251 251 251 251 251 251 251 251 251
273 273 273 274 276 277 277 277 277 277 276 275 273 271 267 263 261 260 260 261 262 263 263 263 263 262 260 260 260 259 258 257 257 257 256 256 257 258 258 258 257 256 256 256 255 254 254 253 253 253 252 252 253 253 253 253 253 252 252 253 253 254 254 254 254 253 253 252 252 252 252 252 252 252
269 271 273 275 277 278 278 277 276 276 276 277 277 277 275 273 270 267 265 265 266 267 268 268 268 267 264 262 261 261 259 257 256 256 256 256 256 257 258 259 259 258 257 257 257 256 255 254 253 254 254 253 252 253 253 253 253 253 253 253 253 253 253 253 253 254 254 254 254 253 253 253 253 253
266 268 270 272 274 276 277 278 278 277 276 277 277 278 278 278 277 276 275 274 272 272 272 272 272 271 269 267 265 264 263 261 259 258 257 256 256 255 256 257 258 258 258 258 257 257 257 256 255 254 254 253 253 253 253 253 253 252 252 252 253 253 253 253 253 253 253 253 253 254 254 254 254 254
269 269 270 270 271 272 273 274 276 277 278 278 278 279 279 279 280 280 280 280 279 278 276 275 274 273 271 268 267 266 266 266 264 262 260 259 258 256 255 255 256 256 257 258 257 257 257 257 256 256 256 255 254 253 253 253 253 253 252 252 252 252 253 253 253 253 253 253 253 253 253 254 254 255
270 270 270 270 270 271 271 271 273 275 276 277 278 279 279 280 280 281 281 282 282 281 281 279 278 275 272 269 266 266 266 267 268 267 265 264 262 260 258 257 256 256 256 257 258 258 258 257 257 256 257 257 256 255 255 254 253 253 253 252 252 252 252 252 252 252 252 252 253 253 253 254 254 255
269 269 269 269 270 270 270 271 272 273 274 274 275 276 277 278 279 280 280 281 281 281 280 280 279 277 274 271 269 268 268 269 269 269 268 267 265 264 262 261 260 259 258 258 258 260 260 259 258 257 258 258 258 257 257 256 255 254 253 253 252 252 252 252 252 252 252 252 253 253 253 254 254 254
268 269 270 270 270 270 270 271 272 273 273 274 274 275 276 277 278 278 279 279 279 278 277 276 276 275 274 273 272 271 271 271 270 270 270 269 268 267 266 265 265 264 264 262 261 261 261 261 260 259 259 259 259 259 258 257 256 255 255 254 253 253 252 252 252 252 252 252 252 253 253 254 254 254
268 269 269 270 271 271 271 272 272 273 273 274 275 275 276 276 277 277 277 277 276 275 275 274 273 273 273 273 272 272 272 272 271 271 270 270 270 269 269 268 268 268 268 267 266 265 264 263 262 261 260 259 260 260 259 258 258 257 256 255 254 253 253 253 252 252 252 252 253 252 253 253 253 254
269 269 270 271 272 273 273 274 274 274 274 274 275 275 275 275 275 276 275 275 274 274 273 273 273 272 272 272 272 272 272 272 272 272 272 272 271 271 271 271 271 270 270 270 269 268 267 266 265 264 262 260 259 259 259 259 258 258 256 255 254 254 253 253 253 253 252 252 252 252 253 253 253 254
270 270 271 272 273 274 274 274 274 274 274 274 274 274 274 274 274 274 274 275 275 275 274 274 274 273 273 273 273 273 273 273 273 274 274 274 274 274 273 273 273 273 273 273 272 271 270 269 269 267 265 263 261 259 259 258 258 258 257 256 255 254 254 254 254 253 253 253 252 252 253 253 253 253
271 271 272 273 274 274 275 275 274 274 274 273 273 273 274 274 274 275 275 276 276 276 276 277 276 276 276 277 277 277 277 277 277 277 278 278 278 278 278 278 278 277 277 277 276 274 273 271 270 268 267 266 264 261 260 259 258 258 257 257 257 256 255 255 254 255 254 254 253 253 253 253 253 253
271 271 272 273 273 274 274 274 274 274 274 274 274 274 275 276 277 277 277 277 277 278 278 279 279 279 280 280 280 280 281 281 281 281 281 281 281 281 281 281 281 280 279 278 276 275 273 271 270 269 268 267 266 264 263 261 260 259 259 259 258 258 257 257 256 256 256 255 255 254 254 253 253 254
270 271 271 272 273 273 273 274 274 275 275 275 276 276 277 278 278 279 279 279 279 279 280 280 280 281 281 281 282 282 282 282 282 282 282 282 282 282 282 281 280 279 277 276 274 273 272 271 271 270 269 268 267 266 265 264 262 261 260 260 260 260 260 259 258 258 257 257 256 255 255 254 254 254
269 270 271 272 273 273 274 274 274 274 275 275 276 277 277 278 278 279 279 279 279 280 280 280 281 281 282 282 282 282 282 283 283 283 283 283 282 282 281 280 278 276 275 274 273 273 273 272 272 272 271 270 268 267 266 265 264 263 261 260 260 260 260 260 260 259 259 258 258 257 256 255 254 254
267 268 269 270 271 272 272 273 273 274 274 275 276 276 277 277 277 278 278 278 279 279 280 280 280 281 281 281 282 282 283 283 284 284 284 283 283 281 280 278 276 275 274 274 274 274 274 274 273 272 270 269 267 266 265 264 263 262 261 261 260 260 260 260 260 260 260 260 259 259 258 257 255 254
265 266 267 267 268 269 269 270 271 272 273 274 275 276 276 276 276 277 277 278 278 279 279 279 280 280 281 281 282 283 284 284 285 285 284 283 282 280 278 277 277 277 276 276 276 275 275 274 272 271 270 268 267 266 266 265 264 263 263 262 262 261 261 261 261 261 261 261 261 261 260 260 258 257
265 266 266 267 267 268 268 269 270 271 272 273 274 274 275 275 276 276 277 277 278 279 279 280 280 281 282 283 284 285 286 286 286 285 284 282 281 280 279 279 279 279 278 277 277 276 275 274 273 271 270 269 268 268 267 267 266 265 265 265 264 263 262 262 262 262 261 261 262 262 262 262 262 261
266 266 266 266 267 267 268 269 270 271 271 272 273 273 274 275 275 276 277 278 278 279 280 281 282 283 285 286 286 287 287 287 286 284 283 282 281 281 281 280 279 279 278 278 278 278 276 275 273 272 270 269 268 268 268 267 267 266 266 266 265 264 263 263 263 262 262 262 262 262 263 263 263 263
265 265 265 266 267 267 268 269 270 270 271 271 272 272 273 274 275 276 277 277 278 279 281 282 283 285 286 287 287 287 287 285 284 283 282 282 282 281 280 280 279 279 279 279 280 279 278 276 274 273 271 270 269 268 268 268 268 267 266 266 266 265 264 263 263 263 263 263 263 263 263 263 264 264
265 265 266 266 267 267 268 268 269 269 270 270 271 271 272 273 274 275 276 277 278 279 281 282 284 285 286 286 286 286 284 283 282 282 283 282 282 281 281 280 280 281 281 281 282 281 279 278 276 275 274 273 271 270 269 268 268 268 267 267 266 265 264 264 264 264 264 264 263 263 264 264 264 265
266 266 267 267 267 267 267 268 268 269 269 270 270 271 272 272 273 274 275 276 278 279 281 282 283 284 285 285 284 283 281 281 282 283 282 282 282 282 282 282 282 283 283 283 283 282 281 279 278 277 276 274 273 272 270 269 269 269 268 267 265 265 265 266 266 266 265 264 264 265 265 266 265 265
267 267 267 267 266 266 267 267 268 268 269 269 269 270 271 271 272 273 275 276 278 279 280 281 282 283 284 283 281 280 280 282 283 282 282 282 282 282 283 284 284 285 285 285 285 284 282 281 280 278 277 276 274 273 272 271 271 270 268 266 266 267 268 268 268 267 266 266 267 267 268 267 267 267
267 267 267 267 267 267 267 267 268 268 268 268 269 270 270 271 272 274 275 277 278 279 280 281 282 283 282 281 279 280 281 282 282 281 282 282 283 283 284 285 285 286 287 287 286 285 283 282 281 279 278 276 275 274 273 273 271 270 268 267 268 269 269 268 267 266 267 268 269 270 269 268 268 267
267 266 266 267 267 267 268 268 268 268 268 269 270 271 272 273 274 275 276 278 279 280 281 281 282 282 280 279 279 281 282 281 281 281 282 283 283 284 285 286 287 287 287 287 286 285 284 284 282 281 279 277 276 275 274 271 269 268 268 268 269 270 270 268 266 266 267 268 269 269 269 268 267 267
265 265 265 266 267 267 266 266 267 267 268 269 270 272 273 274 275 276 277 278 279 280 281 281 281 280 279 279 280 281 281 281 281 282 282 283 284 285 286 287 287 287 286 286 285 285 286 285 284 282 281 279 277 275 273 270 267 266 266 267 268 269 270 269 268 268 268 268 268 268 268 267 267 267
264 264 264 265 265 264 264 265 265 266 268 269 270 271 273 274 275 276 277 277 278 279 280 280 279 278 277 278 279 279 279 280 281 282 282 283 284 285 286 286 286 286 286 286 286 286 287 286 285 284 282 280 279 276 274 271 269 266 265 266 267 268 268 269 270 270 269 268 267 267 267 267 266 266
263 263 263 263 262 262 263 264 264 265 266 268 269 270 272 273 274 275 276 276 277 278 278 278 276 276 276 277 277 278 279 280 281 281 282 283 284 285 285 285 285 285 286 286 286 287 287 286 284 283 281 279 278 277 275 273 272 270 268 268 268 268 269 270 271 271 270 268 267 266 265 265 265 264
262 262 261 261 261 261 262 262 263 264 265 267 268 269 270 271 272 273 274 275 276 276 275 274 273 273 274 275 276 277 278 279 279 281 282 283 284 284 284 284 285 285 286 286 287 287 286 284 282 280 278 277 276 275 275 275 274 273 271 271 270 270 271 272 272 271 270 268 266 264 263 262 262 263
261 261 260 260 260 261 262 262 263 264 265 266 267 268 269 270 271 272 272 273 273 273 272 271 271 272 272 273 275 276 276 277 279 280 281 282 282 282 283 283 284 285 286 287 288 289 288 286 283 280 278 276 276 276 276 276 274 273 272 272 272 272 273 274 273 272 269 267 265 264 262 262 262 262
260 260 260 260 261 261 262 262 262 263 264 265 266 267 267 268 269 270 270 271 270 269 269 269 269 270 271 272 274 274 275 276 278 279 279 279 280 280 281 282 284 286 287 289 290 291 291 289 286 283 280 279 277 277 276 275 274 274 275 275 275 275 274 274 273 270 267 265 264 263 263 262 262 261